Regional Weather Roundup
Issued by NWS Goodland, KS

Home | Current Version | Previous Version | Text Only | Print | Product List | Glossary On
Versions: 1 2 3 4 5 6 7 8 9 10 11 12 13 14 15 16 17 18 19 20 21 22 23 24 25 26 27 28 29 30 31 32 33 34 35 36 37 38 39 40 41 42 43 44 45 46 47 48 49 50
000
ASUS43 KGLD 050108
RWRGLD

GOODLAND FORECAST AREA HOURLY WEATHER ROUNDUP
NATIONAL WEATHER SERVICE GOODLAND KS
600 PM MST SUN DEC 04 2016

...OFFICIAL OBSERVATIONS...

CITY           SKY/WX    TMP DP  RH WIND       PRES   REMARKS
GOODLAND KS    CLEAR     39  13  34 S16       29.86F
HILL CITY KS   CLEAR     36  19  50 SW6       29.92F
IMPERIAL NEB   CLEAR     39  11  31 S13       29.80F
MCCOOK NEB     CLEAR     36  14  40 S8        29.86S
AKRON CO       CLEAR     35   9  33 SW10      29.78F
BURLINGTON CO  CLOUDY    35  11  36 S15       29.86F
LIMON CO       CLOUDY    26   8  46 SE6       29.86S
$$

...UNOFFICIAL OBSERVATIONS...

CITY           SKY/WX    TMP DP  RH WIND       PRES   REMARKS
COLBY KS       CLEAR     39  18  41 S14       29.88F
LENORA KS        N/A     35  32  89 MISG        N/A
NORTON KS      CLEAR     34  16  47 S8        29.88F
SHARON SPRINGS   N/A     35  14  43 S16         N/A
TRENTON NEB      N/A     33  32  96 S7          N/A
KIT CARSON CO    N/A     35  12  38 MISG        N/A
YUMA CO        FAIR      36  12  38 S14       29.79F
$$




USA.gov is the U.S. government's official web portal to all federal, state and local government web resources and services.